CW6261 Weather Reports


Display with metric or nautical units.
time (UTC)temp
F
wind
direction
speed
MPH
gust
MPH
rain 1hr
in
rain 24hr
in
rain mn
in
humidity
%
barometer
mb
20260902004702 92 143 1.0 2.0 0.00 0.00 0.00 43 101.1
20260902003702 93 116 0.0 2.0 0.00 0.00 0.00 42 101.1
20260902003202 93 155 1.0 2.0 0.00 0.00 0.00 42 101.1
20260902002702 93 153 1.0 2.0 0.00 0.00 0.00 42 101.1
20260902002202 94 130 2.0 2.0 0.00 0.00 0.00 41 101.1
20260902001702 94 142 0.0 2.0 0.00 0.00 0.00 41 101.1
20260902001202 95 113 3.0 3.0 0.00 0.00 0.00 39 101.1
20260902000702 95 150 0.0 1.0 0.00 0.00 0.00 38 101.1
20260902000204 95 287 1.0 2.0 0.00 0.00 0.00 38 101.0
20260901235702 95 205 0.0 1.0 0.00 0.00 0.00 37 101.0
20260901235202 95 242 1.0 2.0 0.00 0.00 0.00 37 101.0
20260901234702 95 197 1.0 2.0 0.00 0.00 0.00 38 101.0
20260901234202 95 244 0.0 1.0 0.00 0.00 0.00 39 101.0
20260901233702 95 202 0.0 1.0 0.00 0.00 0.00 39 101.0
20260901233202 94 196 0.0 2.0 0.00 0.00 0.00 41 101.0
20260901232702 94 247 1.0 2.0 0.00 0.00 0.00 41 101.1
20260901232202 95 164 0.0 1.0 0.00 0.00 0.00 40 101.1
20260901231702 96 129 0.0 4.0 0.00 0.00 0.00 39 101.1
20260901231202 97 128 1.0 4.0 0.00 0.00 0.00 38 101.1
20260901230702 97 115 1.0 3.0 0.00 0.00 0.00 38 101.1
20260901230202 96 105 1.0 3.0 0.00 0.00 0.00 38 101.0
20260901225702 97 15 1.0 3.0 0.00 0.00 0.00 38 101.0
20260901225202 97 214 2.0 4.0 0.00 0.00 0.00 37 101.0
20260901224702 96 261 2.0 2.0 0.00 0.00 0.00 38 101.0
20260901224202 94 235 0.0 2.0 0.00 0.00 0.00 39 101.0
20260901223702 95 319 0.0 2.0 0.00 0.00 0.00 39 101.0
20260901223202 96 241 1.0 1.0 0.00 0.00 0.00 39 101.0
20260901222702 97 164 0.0 1.0 0.00 0.00 0.00 38 101.1
20260901222202 95 153 1.0 3.0 0.00 0.00 0.00 38 101.1
20260901221703 95 231 1.0 2.0 0.00 0.00 0.00 39 101.1
20260901220702 97 207 2.0 7.0 0.00 0.00 0.00 36 101.1
20260901220203 97 224 1.0 3.0 0.00 0.00 0.00 36 101.0
20260901215202 97 234 1.0 3.0 0.00 0.00 0.00 37 101.0
20260901214702 97 178 2.0 4.0 0.00 0.00 0.00 36 101.0
20260901214202 97 186 3.0 4.0 0.00 0.00 0.00 36 101.0
20260901213702 98 123 2.0 3.0 0.00 0.00 0.00 36 101.0
20260901212702 98 178 0.0 3.0 0.00 0.00 0.00 36 101.2
20260901212202 96 30 0.0 2.0 0.00 0.00 0.00 37 101.2
20260901211202 99 313 1.0 3.0 0.00 0.00 0.00 37 101.2
20260901210702 98 357 2.0 4.0 0.00 0.00 0.00 37 101.2
20260901210202 97 195 3.0 5.0 0.00 0.00 0.00 38 101.1
20260901205702 97 274 0.0 2.0 0.00 0.00 0.00 37 101.1
20260901205202 95 258 2.0 3.0 0.00 0.00 0.00 39 101.1
20260901204702 95 161 0.0 3.0 0.00 0.00 0.00 39 101.1
20260901204202 96 221 1.0 3.0 0.00 0.00 0.00 39 101.1
20260901203702 95 219 1.0 4.0 0.00 0.00 0.00 40 101.1
20260901203202 94 177 0.0 2.0 0.00 0.00 0.00 40 101.1
20260901202702 96 340 1.0 3.0 0.00 0.00 0.00 40 101.3
20260901202202 97 202 0.0 2.0 0.00 0.00 0.00 39 101.3
20260901201703 97 22 0.0 2.0 0.00 0.00 0.00 39 101.3
20260901201202 96 194 4.0 4.0 0.00 0.00 0.00 39 101.3
20260901200702 95 132 0.0 2.0 0.00 0.00 0.00 40 101.3
20260901200202 94 206 6.0 8.0 0.00 0.00 0.00 42 101.2
20260901195702 95 77 0.0 5.0 0.00 0.00 0.00 41 101.2
20260901195202 98 31 0.0 3.0 0.00 0.00 0.00 39 101.2
20260901194703 97 144 0.0 4.0 0.00 0.00 0.00 38 101.2
20260901194202 97 180 1.0 5.0 0.00 0.00 0.00 38 101.2
20260901193703 95 264 2.0 3.0 0.00 0.00 0.00 40 101.2
20260901193202 96 251 2.0 4.0 0.00 0.00 0.00 40 101.2
20260901192702 95 128 2.0 3.0 0.00 0.00 0.00 41 101.3
20260901192202 95 185 1.0 3.0 0.00 0.00 0.00 40 101.3
20260901191203 94 64 0.0 1.0 0.00 0.00 0.00 40 101.3
20260901190702 96 236 3.0 7.0 0.00 0.00 0.00 39 101.3
20260901190202 95 211 3.0 4.0 0.00 0.00 0.00 41 101.3
20260901185702 94 174 1.0 5.0 0.00 0.00 0.00 42 101.3
20260901185202 95 244 3.0 6.0 0.00 0.00 0.00 42 101.3
20260901184703 94 204 5.0 6.0 0.00 0.00 0.00 42 101.3
20260901184202 93 121 0.0 4.0 0.00 0.00 0.00 43 101.3
20260901183702 93 5 2.0 4.0 0.00 0.00 0.00 44 101.3
20260901183202 93 341 0.0 4.0 0.00 0.00 0.00 43 101.3
20260901182701 94 204 5.0 7.0 0.00 0.00 0.00 42 101.4
20260901182202 93 324 2.0 3.0 0.00 0.00 0.00 43 101.4
20260901181703 95 175 1.0 3.0 0.00 0.00 0.00 42 101.5
20260901181202 94 251 3.0 5.0 0.00 0.00 0.00 43 101.5
20260901180703 93 154 1.0 2.0 0.00 0.00 0.00 43 101.5
20260901180202 93 190 0.0 6.0 0.00 0.00 0.00 44 101.4
20260901175202 93 232 2.0 4.0 0.00 0.00 0.00 45 101.4
20260901174701 92 227 1.0 3.0 0.00 0.00 0.00 46 101.4
20260901174202 91 124 0.0 3.0 0.00 0.00 0.00 46 101.4
20260901173702 92 193 0.0 3.0 0.00 0.00 0.00 46 101.4
20260901173203 90 287 1.0 2.0 0.00 0.00 0.00 48 101.4
20260901172702 91 235 2.0 7.0 0.00 0.00 0.00 48 101.5
20260901172201 93 199 1.0 5.0 0.00 0.00 0.00 46 101.5
20260901171702 92 248 0.0 6.0 0.00 0.00 0.00 47 101.5
20260901171203 92 251 1.0 9.0 0.00 0.00 0.00 47 101.5
20260901170703 92 192 6.0 6.0 0.00 0.00 0.00 48 101.5
20260901170202 91 216 4.0 6.0 0.00 0.00 0.00 49 101.5
20260901165202 91 182 2.0 4.0 0.00 0.00 0.00 48 101.5
20260901164702 91 338 2.0 7.0 0.00 0.00 0.00 48 101.5
20260901164202 90 170 1.0 3.0 0.00 0.00 0.00 50 101.5
20260901163703 89 157 0.0 3.0 0.00 0.00 0.00 53 101.5
20260901163202 90 214 2.0 4.0 0.00 0.00 0.00 51 101.5
20260901162703 89 242 2.0 4.0 0.00 0.00 0.00 52 101.6
20260901162202 90 196 3.0 7.0 0.00 0.00 0.00 51 101.6
20260901161701 88 202 3.0 3.0 0.00 0.00 0.00 53 101.6
20260901161202 88 287 2.0 3.0 0.00 0.00 0.00 54 101.6
20260901160702 88 268 2.0 4.0 0.00 0.00 0.00 54 101.6
20260901155202 87 315 1.0 2.0 0.00 0.00 0.00 54 101.5
20260901154702 87 352 1.0 2.0 0.00 0.00 0.00 56 101.5
20260901153702 86 347 0.0 3.0 0.00 0.00 0.00 58 101.5
20260901153202 86 210 4.0 5.0 0.00 0.00 0.00 59 101.5
20260901152202 85 262 2.0 3.0 0.00 0.00 0.00 63 101.6
20260901151202 85 216 3.0 4.0 0.00 0.00 0.00 64 101.6
20260901150702 84 315 2.0 2.0 0.00 0.00 0.00 65 101.6
20260901150202 83 305 4.0 5.0 0.00 0.00 0.00 67 101.5
20260901145702 83 257 3.0 5.0 0.00 0.00 0.00 67 101.5
20260901145202 83 231 3.0 7.0 0.00 0.00 0.00 69 101.5
20260901144703 82 263 1.0 4.0 0.00 0.00 0.00 72 101.5
20260901143702 82 216 1.0 4.0 0.00 0.00 0.00 73 101.5
20260901143202 82 248 1.0 4.0 0.00 0.00 0.00 75 101.5
20260901142202 81 236 2.0 4.0 0.00 0.00 0.00 77 101.6
20260901141702 81 252 2.0 2.0 0.00 0.00 0.00 78 101.6
20260901141202 81 137 1.0 3.0 0.00 0.00 0.00 78 101.6
20260901140703 81 254 2.0 5.0 0.00 0.00 0.00 79 101.6
20260901140201 80 334 2.0 3.0 0.00 0.00 0.00 79 101.5
20260901135701 80 275 2.0 3.0 0.00 0.00 0.00 80 101.5
20260901135202 80 278 2.0 3.0 0.00 0.00 0.00 80 101.5
20260901134702 79 44 0.0 2.0 0.00 0.00 0.00 81 101.5
20260901133702 79 262 1.0 2.0 0.00 0.00 0.00 83 101.5
20260901133202 78 268 0.0 4.0 0.00 0.00 0.00 83 101.5
20260901132702 78 256 1.0 2.0 0.00 0.00 0.00 84 101.6
20260901131701 78 198 1.0 3.0 0.00 0.00 0.00 84 101.5
20260901131202 77 261 0.0 3.0 0.00 0.00 0.00 85 101.5
20260901130702 77 163 1.0 3.0 0.00 0.00 0.00 86 101.5
20260901125702 77 208 1.0 2.0 0.00 0.00 0.00 87 101.5
20260901125202 77 205 1.0 1.0 0.00 0.00 0.00 87 101.5
20260901124702 76 258 2.0 2.0 0.00 0.00 0.00 87 101.5
20260901124202 76 240 0.0 2.0 0.00 0.00 0.00 87 101.5
20260901123702 76 226 2.0 2.0 0.00 0.00 0.00 88 101.5
20260901123202 76 199 2.0 2.0 0.00 0.00 0.00 87 101.5
20260901122202 76 271 0.0 2.0 0.00 0.00 0.00 87 101.5
20260901121202 76 182 1.0 2.0 0.00 0.00 0.00 87 101.5
20260901120702 76 218 1.0 3.0 0.00 0.00 0.00 87 101.5
20260901120202 76 228 1.0 2.0 0.00 0.00 0.00 87 101.4
20260901115701 76 228 1.0 2.0 0.00 0.00 0.00 87 101.4
20260901115202 77 224 1.0 2.0 0.00 0.00 0.00 87 101.4
20260901114702 77 257 0.0 2.0 0.00 0.00 0.00 87 101.4
20260901113701 77 272 1.0 2.0 0.00 0.00 0.00 86 101.4
20260901113202 77 198 2.0 3.0 0.00 0.00 0.00 86 101.4
20260901112702 77 242 2.0 3.0 0.00 0.00 0.00 86 101.5
20260901112202 77 236 1.0 3.0 0.00 0.00 0.00 85 101.5
20260901111702 77 229 2.0 3.0 0.00 0.00 0.00 85 101.5
20260901111202 77 188 3.0 5.0 0.00 0.00 0.00 85 101.5
20260901110702 77 218 1.0 3.0 0.00 0.00 0.00 84 101.5
20260901110203 77 237 2.0 4.0 0.00 0.00 0.00 84 101.4
20260901105702 77 259 2.0 3.0 0.00 0.00 0.00 84 101.4
20260901105202 77 267 1.0 4.0 0.00 0.00 0.00 84 101.4
20260901104702 77 185 1.0 4.0 0.00 0.00 0.00 84 101.4
20260901104202 78 249 2.0 4.0 0.00 0.00 0.00 83 101.4
20260901103702 78 224 2.0 5.0 0.00 0.00 0.00 83 101.4
20260901102702 78 254 1.0 3.0 0.00 0.00 0.00 83 101.4
20260901101202 78 131 0.0 4.0 0.00 0.00 0.00 83 101.5
20260901100702 78 162 2.0 4.0 0.00 0.00 0.00 83 101.5
20260901095202 78 222 2.0 4.0 0.00 0.00 0.00 83 101.4
20260901094702 79 236 2.0 4.0 0.00 0.00 0.00 82 101.4
20260901094202 79 250 5.0 5.0 0.00 0.00 0.00 81 101.4
20260901093704 79 240 3.0 5.0 0.00 0.00 0.00 81 101.4
20260901093202 79 229 0.0 5.0 0.00 0.00 0.00 80 101.4
20260901092202 79 228 2.0 2.0 0.00 0.00 0.00 80 101.5
20260901091702 79 188 2.0 4.0 0.00 0.00 0.00 80 101.5
20260901091202 79 227 3.0 4.0 0.00 0.00 0.00 80 101.5
20260901090701 79 233 2.0 4.0 0.00 0.00 0.00 79 101.5
20260901090202 79 192 6.0 6.0 0.00 0.00 0.00 79 101.4
20260901085702 79 265 2.0 4.0 0.00 0.00 0.00 79 101.4
20260901085202 79 302 2.0 6.0 0.00 0.00 0.00 78 101.4
20260901083702 79 213 2.0 8.0 0.00 0.00 0.00 77 101.4
20260901083202 79 209 2.0 5.0 0.00 0.00 0.00 77 101.4
20260901082701 79 240 1.0 4.0 0.00 0.00 0.00 76 101.5
20260901082202 79 193 3.0 6.0 0.00 0.00 0.00 75 101.5
20260901081703 79 220 3.0 3.0 0.00 0.00 0.00 75 101.5
20260901081202 79 228 1.0 2.0 0.00 0.00 0.00 74 101.5
20260901080702 79 204 3.0 4.0 0.00 0.00 0.00 74 101.5
20260901080202 80 298 2.0 2.0 0.00 0.00 0.00 74 101.4
20260901075702 80 221 2.0 2.0 0.00 0.00 0.00 73 101.4
20260901075202 80 194 1.0 2.0 0.00 0.00 0.00 73 101.4
20260901074702 80 208 1.0 2.0 0.00 0.00 0.00 72 101.4
20260901074202 80 199 2.0 2.0 0.00 0.00 0.00 71 101.4
20260901073702 81 205 1.0 3.0 0.00 0.00 0.00 71 101.4
20260901073202 81 216 2.0 2.0 0.00 0.00 0.00 70 101.4
20260901072702 81 198 2.0 4.0 0.00 0.00 0.00 70 101.5
20260901072202 81 185 1.0 2.0 0.00 0.00 0.00 69 101.5
20260901071702 81 193 2.0 4.0 0.00 0.00 0.00 69 101.5
20260901071202 81 187 2.0 3.0 0.00 0.00 0.00 68 101.5
20260901070702 81 188 2.0 5.0 0.00 0.00 0.00 68 101.5
20260901070202 81 255 2.0 6.0 0.00 0.00 0.00 68 101.4
20260901065702 81 196 2.0 4.0 0.00 0.00 0.00 68 101.4
20260901064702 82 182 4.0 4.0 0.00 0.00 0.00 69 101.4
20260901064202 82 184 4.0 6.0 0.00 0.00 0.00 69 101.4
20260901063202 82 192 2.0 3.0 0.00 0.00 0.00 69 101.4
20260901062702 82 246 3.0 4.0 0.00 0.00 0.00 69 101.4
20260901062202 82 208 2.0 4.0 0.00 0.00 0.00 69 101.4
20260901061702 82 227 2.0 4.0 0.00 0.00 0.00 68 101.4
20260901061202 82 181 1.0 4.0 0.00 0.00 0.00 68 101.4
20260901060702 82 181 0.0 4.0 0.00 0.00 0.00 68 101.4
20260901060202 82 210 1.0 5.0 0.00 0.00 0.00 67 101.4
20260901055701 82 236 1.0 5.0 0.00 0.00 0.00 66 101.4
20260901055202 82 191 1.0 5.0 0.00 0.00 0.00 66 101.4
20260901054702 82 211 1.0 4.0 0.00 0.00 0.00 65 101.4
20260901054202 83 203 1.0 4.0 0.00 0.00 0.00 65 101.4
20260901053702 83 217 1.0 2.0 0.00 0.00 0.00 64 101.4
20260901052702 83 194 5.0 7.0 0.00 0.00 0.00 63 101.4
20260901052202 83 231 2.0 5.0 0.00 0.00 0.00 63 101.4
20260901051702 84 189 2.0 5.0 0.00 0.00 0.00 63 101.4
20260901050703 84 225 3.0 6.0 0.00 0.00 0.00 62 101.4
20260901050202 84 206 4.0 7.0 0.00 0.00 0.00 62 101.4
20260901045702 84 206 4.0 6.0 0.00 0.00 0.00 61 101.4
20260901045202 84 160 2.0 8.0 0.00 0.00 0.00 61 101.4
20260901044702 84 193 4.0 8.0 0.00 0.00 0.00 61 101.4
20260901044202 85 197 5.0 6.0 0.00 0.00 0.00 60 101.4
20260901043702 85 182 4.0 7.0 0.00 0.00 0.00 60 101.4
20260901042702 85 183 1.0 8.0 0.00 0.00 0.00 59 101.4
20260901042202 85 190 2.0 9.0 0.00 0.00 0.00 58 101.4
20260901041702 85 148 0.0 4.0 0.00 0.00 0.00 58 101.4
20260901041202 85 188 3.0 7.0 0.00 0.00 0.00 57 101.4
20260901040702 86 212 3.0 5.0 0.00 0.00 0.00 56 101.4
20260901040202 86 219 0.0 4.0 0.00 0.00 0.00 56 101.3
20260901035702 86 168 1.0 6.0 0.00 0.00 0.00 55 101.3
20260901035202 86 203 1.0 6.0 0.00 0.00 0.00 55 101.3
20260901034702 86 187 4.0 7.0 0.00 0.00 0.00 54 101.3
20260901033702 87 125 1.0 6.0 0.00 0.00 0.00 53 101.3
20260901033202 87 204 3.0 5.0 0.00 0.00 0.00 52 101.3
20260901032701 87 188 1.0 6.0 0.00 0.00 0.00 52 101.3
20260901032202 87 180 5.0 12.0 0.00 0.00 0.00 51 101.3
20260901031702 88 171 3.0 7.0 0.00 0.00 0.00 51 101.3
20260901031202 88 188 3.0 6.0 0.00 0.00 0.00 50 101.3
20260901030702 88 89 1.0 6.0 0.00 0.00 0.00 50 101.3
20260901030202 88 141 1.0 6.0 0.00 0.00 0.00 49 101.3
20260901025702 88 191 2.0 6.0 0.00 0.00 0.00 48 101.3
20260901025202 87 163 0.0 4.0 0.00 0.00 0.00 46 101.3
20260901024701 87 254 1.0 4.0 0.00 0.00 0.00 45 101.3
20260901024202 87 194 1.0 1.0 0.00 0.00 0.00 44 101.3
20260901023702 88 180 0.0 0.0 0.00 0.00 0.00 43 101.3
20260901023201 88 202 0.0 0.0 0.00 0.00 0.00 42 101.3
20260901022702 88 195 0.0 0.0 0.00 0.00 0.00 42 101.2
20260901022203 88 117 0.0 0.0 0.00 0.00 0.00 42 101.2
20260901021702 88 224 0.0 2.0 0.00 0.00 0.00 42 101.2
20260901020702 88 224 0.0 1.0 0.00 0.00 0.00 42 101.2
20260901020202 89 186 0.0 0.0 0.00 0.00 0.00 42 101.2
20260901015702 88 135 0.0 1.0 0.00 0.00 0.00 42 101.2
20260901014203 89 203 0.0 0.0 0.00 0.00 0.00 42 101.2
20260901013702 89 269 0.0 1.0 0.00 0.00 0.00 42 101.2
20260901013202 89 199 0.0 1.0 0.00 0.00 0.00 41 101.2
20260901012702 90 231 0.0 1.0 0.00 0.00 0.00 41 101.2
20260901012202 90 245 1.0 1.0 0.00 0.00 0.00 40 101.2
20260901011203 91 142 0.0 0.0 0.00 0.00 0.00 39 101.2
20260901010702 91 224 0.0 1.0 0.00 0.00 0.00 38 101.2
20260901010202 91 269 0.0 1.0 0.00 0.00 0.00 38 101.1
20260901005702 92 242 0.0 1.0 0.00 0.00 0.00 37 101.1